Date,TemperatureHighF,TemperatureAvgF,TemperatureLowF,DewpointHighF,DewpointAvgF,DewpointLowF,HumidityHigh,HumidityAvg,HumidityLow,PressureMaxIn,PressureMinIn,WindSpeedMaxMPH,WindSpeedAvgMPH,GustSpeedMaxMPH,PrecipitationSumIn
2014-1-1,59.3,51.0,39.9,25.0,21.4,15.0,51,33,19,30.16,30.02,14,3,21,0.00
2014-1-2,55.8,47.1,38.4,27.0,23.6,14.0,63,41,20,30.32,30.16,33,16,39,0.00
2014-1-3,58.6,49.9,37.0,26.0,23.9,22.0,55,37,28,30.16,29.91,19,4,23,0.00
2014-1-4,62.5,53.7,45.9,26.0,22.8,19.0,43,31,21,29.91,29.77,17,4,22,0.00
2014-1-5,51.7,43.2,37.5,22.0,4.7,-9.0,45,23,11,30.23,29.87,14,5,22,0.00
2014-1-6,46.4,37.6,25.2,11.0,1.0,-8.0,41,22,12,30.47,30.23,16,5,18,0.00
2014-1-7,51.6,41.2,29.2,21.0,12.5,4.0,38,31,22,30.35,30.10,11,2,14,0.00
2014-1-8,62.4,51.7,42.8,19.0,15.7,9.0,38,25,15,30.09,29.95,11,2,17,0.00
2014-1-9,58.6,50.2,42.6,25.0,15.2,9.0,39,25,19,30.04,29.88,8,1,12,0.00
2014-1-10,59.7,50.6,41.6,30.0,21.0,16.0,60,34,18,30.03,29.88,14,4,22,0.00
2014-1-11,62.1,51.7,41.0,23.0,18.7,17.0,41,28,18,30.19,29.99,6,1,8,0.00
2014-1-12,65.0,55.5,48.2,24.0,20.3,14.0,36,26,15,30.00,29.83,18,4,30,0.00
2014-1-13,56.8,48.8,37.7,13.0,4.9,0.0,26,17,10,30.24,30.00,19,4,25,0.00
2014-1-14,60.0,49.2,37.2,13.0,9.6,4.0,29,20,14,30.32,30.15,10,2,14,0.00
2014-1-15,58.4,49.1,38.2,17.0,12.1,6.0,37,23,16,30.37,30.11,22,3,22,0.00
2014-1-16,61.4,50.5,41.1,18.0,13.0,8.0,34,23,15,30.16,30.05,21,4,25,0.00
2014-1-17,57.4,50.1,40.1,20.0,17.6,15.0,41,28,20,30.23,30.08,22,4,24,0.00
2014-1-18,62.2,52.1,41.4,20.0,14.3,10.0,36,23,15,30.20,30.08,21,4,21,0.00
2014-1-19,61.4,53.2,40.7,17.0,14.4,12.0,34,22,16,30.24,30.07,23,5,30,0.00
2014-1-20,65.5,56.6,46.9,15.0,11.4,7.0,25,17,11,30.25,30.05,25,6,34,0.00
2014-1-21,61.0,52.3,45.8,16.0,14.4,11.0,29,22,17,30.36,30.12,32,10,44,0.00
2014-1-22,63.5,54.3,43.4,21.0,14.9,11.0,35,22,14,30.11,29.83,4,1,7,0.00
2014-1-23,57.8,41.5,27.1,19.0,14.4,10.0,50,36,16,30.47,29.83,43,24,59,0.00
2014-1-24,45.3,35.0,24.6,17.0,10.8,4.0,47,37,28,30.66,30.44,32,4,37,0.00
2014-1-25,58.1,48.4,37.4,19.0,17.0,13.0,43,30,19,30.44,30.04,7,1,10,0.00
2014-1-26,67.7,55.9,47.6,30.0,25.8,19.0,42,32,20,30.04,29.80,16,4,21,0.00
2014-1-27,56.5,50.8,43.8,38.0,26.2,21.0,61,39,28,29.97,29.83,36,8,38,0.00
2014-1-28,51.3,42.7,35.7,39.0,20.3,5.0,73,43,26,30.18,29.90,31,13,37,0.00
2014-1-29,56.7,42.4,27.4,15.0,10.0,5.0,41,28,18,30.27,30.00,24,2,33,0.00
2014-1-30,70.6,58.1,45.7,27.0,18.3,12.0,29,22,13,30.00,29.75,14,3,24,0.00
2014-1-31,66.9,59.2,52.8,33.0,30.0,27.0,43,34,24,29.78,29.61,22,6,29,0.00
2014-2-1,62.9,54.2,47.2,35.0,30.9,29.0,54,42,30,29.79,29.64,14,4,22,0.00
2014-2-2,54.2,47.8,42.0,35.0,28.1,19.0,62,48,26,29.98,29.78,24,6,24,0.00
2014-2-3,60.1,48.8,40.9,32.0,27.7,10.0,68,47,20,29.90,29.62,26,9,28,0.00
2014-2-4,49.7,42.0,33.9,29.0,21.1,16.0,69,46,26,30.05,29.76,16,6,27,0.00
2014-2-5,43.7,37.3,26.7,22.0,18.3,14.0,61,47,33,30.12,29.97,48,20,50,0.00
2014-2-6,40.4,30.8,22.0,19.0,16.0,12.0,73,56,41,30.30,30.08,44,17,47,0.00
2014-2-7,56.4,45.7,36.5,29.0,24.3,18.0,60,44,31,30.19,30.04,13,3,21,0.00
2014-2-8,64.1,52.5,42.7,28.0,24.8,20.0,53,36,22,30.16,30.05,10,4,18,0.00
2014-2-9,71.2,58.7,45.1,34.0,25.7,19.0,37,28,22,30.08,29.85,13,3,22,0.00
2014-2-10,71.4,61.5,53.7,27.0,25.0,21.0,32,25,16,29.90,29.70,15,5,23,0.00
2014-2-11,58.0,47.3,34.8,27.0,25.4,24.0,64,43,28,30.04,29.73,24,7,32,0.00
2014-2-12,63.7,52.3,40.3,28.0,22.3,14.0,54,33,17,30.20,29.98,7,2,14,0.00
2014-2-13,73.1,61.0,48.3,24.0,18.4,11.0,27,20,14,30.03,29.85,9,3,17,0.00
2014-2-14,77.7,65.2,55.8,25.0,21.6,17.0,28,20,12,29.98,29.83,11,3,13,0.00
2014-2-15,78.9,67.8,54.1,23.0,17.2,11.0,25,15,8,29.97,29.84,8,2,15,0.00
2014-2-16,78.3,67.9,57.1,22.0,13.8,4.0,20,13,6,29.90,29.77,15,3,22,0.00
2014-2-17,71.0,64.1,54.3,17.0,14.0,11.0,19,14,11,30.01,29.88,15,2,21,0.00
2014-2-18,75.3,65.6,55.3,21.0,15.5,11.0,22,15,9,29.92,29.77,12,2,19,0.00
2014-2-19,73.8,63.5,55.4,21.0,14.2,8.0,21,15,8,29.79,29.60,17,3,20,0.00
2014-2-20,64.2,57.1,49.9,18.0,6.9,-12.0,27,15,6,29.95,29.66,19,7,27,0.00
2014-2-21,65.4,55.1,44.0,11.0,1.4,-9.0,20,11,7,30.00,29.84,13,2,17,0.00
2014-2-22,70.4,60.5,49.6,11.0,4.8,-5.0,16,11,5,29.90,29.74,15,2,19,0.00
2014-2-23,70.9,63.0,55.9,28.0,12.7,5.0,27,15,8,29.95,29.84,9,2,15,0.00
2014-2-24,73.7,63.9,55.3,28.0,23.1,18.0,30,22,13,29.95,29.80,8,1,11,0.00
2014-2-25,70.2,63.5,57.4,35.0,24.7,20.0,43,23,17,29.90,29.75,16,3,17,0.00
2014-2-26,68.1,58.1,46.9,36.0,32.5,26.0,62,40,27,29.93,29.78,21,4,28,0.00
2014-2-27,72.9,61.6,50.2,33.0,28.1,24.0,41,29,16,29.88,29.63,16,3,25,0.00
2014-2-28,73.6,62.3,50.9,36.0,31.1,23.0,53,33,18,29.83,29.69,15,4,20,0.00
2014-3-1,73.0,62.1,54.3,40.0,30.4,19.0,58,33,15,29.84,29.68,19,6,25,0.00
2014-3-2,58.4,51.9,45.2,45.0,37.6,32.0,91,61,38,30.04,29.78,15,5,22,0.22
2014-3-3,58.9,52.3,47.1,35.0,30.8,28.0,62,45,33,30.05,29.92,24,8,31,0.00
2014-3-4,60.9,53.7,42.1,35.0,31.7,30.0,63,44,33,29.97,29.79,8,1,10,0.00
2014-3-5,67.1,57.9,47.6,35.0,31.1,27.0,58,38,23,30.03,29.83,28,6,28,0.00
2014-3-6,69.1,58.8,48.5,33.0,28.8,23.0,53,34,18,30.08,29.80,31,8,34,0.00
2014-3-7,73.1,64.0,55.5,31.0,26.5,23.0,31,24,19,29.80,29.60,15,3,19,0.00
2014-3-8,58.5,53.1,46.8,32.0,28.8,25.0,49,40,33,30.18,29.73,30,10,41,0.00
2014-3-9,59.7,49.7,42.1,26.0,23.4,20.0,49,37,24,30.27,30.12,26,5,31,0.00
2014-3-10,67.8,55.2,43.8,34.0,28.1,24.0,61,38,19,30.17,29.83,11,2,16,0.00
2014-3-11,71.7,60.2,48.6,25.0,20.6,14.0,40,23,12,29.84,29.71,14,5,23,0.00
2014-3-12,59.7,48.1,39.4,25.0,19.2,16.0,48,33,18,30.20,29.85,44,17,46,0.00
2014-3-13,66.3,54.3,44.6,27.0,20.9,16.0,35,28,20,30.17,29.83,31,13,35,0.00
2014-3-14,68.3,61.5,54.5,36.0,28.2,24.0,51,29,19,29.90,29.76,12,3,21,0.00
2014-3-15,65.4,53.6,44.8,37.0,28.7,11.0,60,41,18,29.96,29.73,24,5,33,0.02
2014-3-16,59.2,50.4,43.3,30.0,18.2,7.0,57,31,15,30.24,29.98,18,4,31,0.00
2014-3-17,73.2,58.3,44.1,17.0,11.7,5.0,29,17,7,30.11,29.55,15,3,20,0.00
2014-3-18,73.1,62.5,50.6,16.0,8.4,-3.0,20,12,5,29.77,29.56,17,4,24,0.00
2014-3-19,67.5,56.6,44.4,20.0,10.7,-8.0,27,17,7,30.02,29.77,34,13,39,0.00
2014-3-20,75.7,63.5,48.0,21.0,14.0,6.0,31,16,7,30.04,29.77,18,4,23,0.00
2014-3-21,75.2,66.2,56.1,22.0,12.1,4.0,21,13,7,29.81,29.68,13,3,19,0.00
2014-3-22,75.5,65.2,56.8,20.0,14.9,10.0,20,15,8,29.87,29.73,16,3,24,0.00
2014-3-23,62.8,57.5,47.3,29.0,22.5,15.0,44,27,16,30.02,29.85,31,13,38,0.00
2014-3-24,73.0,62.5,48.3,29.0,23.1,16.0,41,24,12,30.03,29.88,17,4,27,0.00
2014-3-25,66.5,59.8,52.9,42.0,27.9,15.0,63,32,14,29.91,29.68,43,20,46,0.02
2014-3-26,73.2,61.7,48.7,46.0,27.8,5.0,80,38,7,29.80,29.59,20,8,33,0.00
2014-3-27,72.2,62.2,51.6,28.0,20.7,13.0,33,21,12,29.76,29.63,16,5,26,0.00
2014-3-28,69.8,59.3,48.2,30.0,23.0,15.0,42,27,13,30.01,29.75,14,4,22,0.00
2014-3-29,75.3,64.3,51.3,27.0,20.8,17.0,31,20,12,30.09,29.87,21,6,27,0.00
2014-3-30,81.2,70.4,62.7,29.0,20.4,12.0,26,16,8,29.87,29.57,23,8,26,0.00
2014-3-31,76.7,65.1,52.7,24.0,16.7,5.0,28,17,6,29.84,29.69,14,4,21,0.00
2014-4-1,77.5,67.0,57.4,24.0,14.5,7.0,21,14,7,29.80,29.63,16,4,25,0.00
2014-4-2,75.0,65.4,56.6,22.0,11.9,-3.0,26,14,6,29.68,29.54,20,7,33,0.00
2014-4-3,62.9,54.2,44.1,25.0,13.5,-1.0,45,23,8,29.95,29.62,18,7,23,0.00
2014-4-4,69.0,57.8,45.6,21.0,15.0,3.0,37,20,12,29.98,29.75,36,16,45,0.00
2014-4-5,67.2,60.9,54.2,31.0,17.5,5.0,31,19,9,29.76,29.60,18,5,25,0.00
2014-4-6,66.4,57.2,47.5,27.0,20.6,14.0,39,25,14,29.80,29.69,11,4,20,0.00
2014-4-7,69.5,59.8,49.7,24.0,14.4,7.0,32,18,9,30.03,29.80,18,5,27,0.00
2014-4-8,75.8,65.9,51.1,25.0,15.8,7.0,28,15,9,30.16,30.00,20,5,22,0.00
2014-4-9,82.8,72.3,56.8,19.0,4.7,-8.0,17,8,3,30.01,29.79,12,2,14,0.00
2014-4-10,85.0,72.3,60.3,14.0,-12.2,-99.9,13,6,1,29.89,29.74,7,2,17,0.00
2014-4-11,81.7,72.6,60.3,26.0,3.2,-16.0,19,7,2,29.86,29.71,12,2,19,0.00
2014-4-12,79.0,70.4,64.2,42.0,26.2,15.0,42,21,9,29.72,29.53,22,6,33,0.00
2014-4-13,76.5,65.6,54.4,39.0,20.2,8.0,45,21,7,29.70,29.57,20,4,23,0.00
2014-4-14,63.6,54.4,45.2,30.0,22.7,15.0,46,30,17,30.11,29.67,33,11,38,0.00
2014-4-15,69.1,54.7,41.7,16.0,9.5,-5.0,33,20,6,30.19,29.82,33,14,43,0.00
2014-4-16,80.5,68.6,55.4,17.0,6.8,-9.0,21,10,3,29.81,29.52,15,3,20,0.00
2014-4-17,77.4,67.3,56.5,29.0,15.2,1.0,26,14,8,29.87,29.66,24,5,31,0.00
2014-4-18,79.4,67.7,58.1,41.0,35.8,29.0,50,32,19,29.88,29.72,34,16,48,0.00
2014-4-19,72.3,63.6,55.6,52.0,45.3,38.0,72,52,31,29.89,29.71,28,10,33,0.11
2014-4-20,75.8,64.5,51.4,46.0,40.1,33.0,77,45,23,29.99,29.87,12,2,16,0.00
2014-4-21,82.9,72.5,59.9,41.0,33.5,24.0,44,26,12,29.95,29.80,9,3,14,0.00
2014-4-22,85.5,75.9,65.4,45.0,35.9,26.0,47,25,12,29.83,29.51,29,11,37,0.00
2014-4-23,81.2,72.3,62.2,29.0,23.2,14.0,24,17,8,29.64,29.48,23,5,25,0.00
2014-4-24,78.9,68.7,57.1,19.0,12.6,6.0,20,12,6,29.87,29.64,8,3,13,0.00
2014-4-25,83.7,73.4,61.4,22.0,17.0,13.0,20,12,8,29.79,29.56,16,4,21,0.00
2014-4-26,78.9,68.9,53.7,35.0,19.6,8.0,46,18,7,29.59,29.38,24,8,37,0.00
2014-4-27,67.6,57.7,48.1,33.0,23.9,17.0,53,29,16,29.74,29.56,19,8,35,0.00
2014-4-28,74.9,63.7,51.8,25.0,22.4,18.0,32,21,12,29.80,29.62,17,8,29,0.00
2014-4-29,65.3,58.7,49.7,22.0,4.1,-8.0,22,12,6,29.94,29.75,21,8,29,0.00
2014-4-30,63.5,56.1,48.5,23.0,18.5,-6.0,34,24,7,30.03,29.91,34,14,42,0.00
2014-5-1,61.4,56.4,53.0,33.0,28.2,21.0,44,35,26,30.06,29.95,30,12,35,0.00
2014-5-2,73.5,61.6,48.6,33.0,26.4,16.0,50,29,14,30.09,29.92,17,4,23,0.00
2014-5-3,82.6,72.5,60.3,25.0,13.3,3.0,20,11,6,29.98,29.80,8,2,14,0.00
2014-5-4,87.4,77.8,66.6,19.0,6.9,-4.0,13,7,3,29.86,29.68,13,3,21,0.00
2014-5-5,85.6,75.7,65.9,28.0,16.9,8.0,16,11,6,29.80,29.61,14,3,26,0.00
2014-5-6,82.7,72.2,60.5,30.0,23.4,12.0,23,16,11,29.67,29.47,23,6,33,0.00
2014-5-7,78.4,68.7,60.1,35.0,24.5,1.0,34,21,6,29.65,29.51,23,6,30,0.00
2014-5-8,72.9,62.3,51.2,26.0,20.8,16.0,30,21,12,29.85,29.65,18,4,21,0.00
2014-5-9,80.1,68.4,54.3,27.0,16.8,-2.0,30,16,4,29.92,29.69,13,3,19,0.00
2014-5-10,85.6,73.0,59.8,26.0,17.6,7.0,23,13,5,29.74,29.50,17,4,23,0.00
2014-5-11,84.2,73.9,63.0,29.0,18.5,7.0,22,13,8,29.58,29.39,28,7,33,0.00
2014-5-12,73.7,64.7,53.7,29.0,16.8,5.0,25,16,9,29.86,29.57,10,3,17,0.00
2014-5-13,63.3,55.8,46.8,27.0,24.2,11.0,40,30,13,30.24,29.86,38,14,46,0.00
2014-5-14,66.8,58.0,49.4,24.0,18.0,9.0,33,22,13,30.34,30.13,25,8,32,0.00
2014-5-15,78.4,67.2,57.1,17.0,11.1,7.0,15,12,7,30.19,29.95,24,7,26,0.00
2014-5-16,86.6,76.4,65.6,19.0,11.4,3.0,14,9,5,29.95,29.70,10,2,16,0.00
2014-5-17,91.3,79.8,63.9,22.0,10.9,3.0,15,8,4,29.75,29.58,15,2,15,0.00
2014-5-18,91.9,81.0,67.8,11.0,-2.1,-99.9,10,5,1,29.70,29.54,12,3,21,0.00
2014-5-19,88.7,79.2,69.3,18.0,-0.5,-15.0,12,5,2,29.71,29.60,20,4,25,0.00
2014-5-20,87.2,77.8,67.0,20.0,3.0,-19.0,11,6,2,29.79,29.64,9,3,17,0.00
2014-5-21,89.1,80.0,70.3,28.0,17.0,2.0,19,10,5,29.74,29.58,15,3,28,0.00
2014-5-22,83.2,76.3,68.0,38.0,32.3,26.0,26,20,15,29.76,29.66,16,5,21,0.00
2014-5-23,85.5,75.4,61.8,52.0,39.0,30.0,50,29,14,29.76,29.56,22,4,23,0.04
2014-5-24,82.0,72.2,63.3,38.0,26.9,14.0,36,20,9,29.77,29.59,16,4,25,0.00
2014-5-25,79.2,69.9,56.4,34.0,28.3,23.0,34,22,15,29.79,29.69,12,3,21,0.00
2014-5-26,83.0,72.8,62.2,44.0,39.2,34.0,42,30,21,29.83,29.72,16,4,20,0.00
2014-5-27,92.2,80.8,66.9,43.0,34.0,23.0,36,20,10,29.82,29.66,24,3,26,0.00
2014-5-28,93.2,83.3,75.8,45.0,38.8,33.0,30,21,13,29.75,29.58,27,11,35,0.00
2014-5-29,90.6,81.2,72.2,44.0,41.4,37.0,35,25,16,29.71,29.59,26,9,38,0.00
2014-5-30,92.2,82.3,71.1,47.0,42.7,39.0,33,25,16,29.71,29.57,27,7,30,0.00
2014-5-31,97.2,86.7,76.8,46.0,41.3,34.0,33,22,12,29.69,29.53,24,7,31,0.00
2014-6-1,97.6,87.9,76.9,40.0,29.3,16.0,22,13,7,29.61,29.47,11,3,21,0.00
2014-6-2,101.0,90.1,76.3,36.0,21.7,11.0,19,9,4,29.64,29.52,10,3,15,0.00
2014-6-3,103.8,92.9,78.9,45.0,26.8,13.0,22,10,4,29.57,29.43,22,7,27,0.00
2014-6-4,102.1,91.6,80.5,43.0,25.4,9.0,22,10,5,29.52,29.40,9,3,14,0.00
2014-6-5,101.6,91.4,77.9,34.0,13.8,-3.0,16,6,2,29.51,29.38,9,2,13,0.00
2014-6-6,100.2,90.4,77.1,27.0,16.3,1.0,12,7,4,29.48,29.33,11,3,18,0.00
2014-6-7,97.1,87.1,73.0,27.0,6.9,-6.0,11,5,2,29.54,29.41,10,2,15,0.00
2014-6-8,94.0,84.0,73.0,57.0,36.5,15.0,54,23,6,29.55,29.41,19,6,26,0.00
2014-6-9,91.9,83.1,74.0,37.0,17.8,3.0,22,10,4,29.67,29.51,25,6,35,0.00
2014-6-10,95.5,82.4,70.7,46.0,37.7,28.0,34,22,11,29.68,29.54,37,14,39,0.00
2014-6-11,96.6,87.4,76.6,39.0,33.1,28.0,21,15,9,29.63,29.47,17,5,21,0.00
2014-6-12,94.7,85.5,77.2,49.0,38.2,31.0,30,20,11,29.69,29.56,21,4,35,0.00
2014-6-13,95.4,81.9,72.8,61.0,51.1,38.0,64,38,16,29.68,29.55,25,11,34,0.00
2014-6-14,94.1,83.8,74.5,50.0,45.1,33.0,38,27,12,29.65,29.45,15,5,26,0.00
2014-6-15,94.9,84.1,72.4,46.0,35.2,22.0,26,18,9,29.64,29.52,13,4,21,0.00
2014-6-16,94.8,85.3,75.9,39.0,29.8,19.0,20,14,11,29.70,29.52,16,3,21,0.00
2014-6-17,94.4,83.2,74.4,48.0,41.7,35.0,37,24,13,29.69,29.53,15,3,22,0.00
2014-6-18,89.6,81.2,71.2,50.0,46.0,41.0,43,30,18,29.68,29.57,13,3,26,0.00
2014-6-19,92.9,82.8,71.4,46.0,41.0,36.0,34,24,15,29.73,29.60,11,2,18,0.00
2014-6-20,90.8,81.3,73.7,54.0,48.7,43.0,45,33,23,29.74,29.62,25,7,29,0.00
2014-6-21,96.0,83.8,72.8,58.0,50.6,35.0,56,35,12,29.68,29.54,32,7,32,0.00
2014-6-22,97.7,87.1,75.3,47.0,40.0,32.0,33,20,10,29.62,29.46,10,3,20,0.00
2014-6-23,96.9,86.9,73.3,44.0,35.8,30.0,28,17,12,29.66,29.53,11,3,23,0.00
2014-6-24,95.8,84.5,72.2,57.0,46.9,38.0,58,29,14,29.74,29.59,29,5,31,0.00
2014-6-25,96.3,86.2,76.6,54.0,44.8,34.0,39,25,12,29.69,29.52,29,5,31,0.00
2014-6-26,96.9,86.6,74.6,52.0,45.7,35.0,44,26,12,29.64,29.44,16,4,20,0.00
2014-6-27,95.2,85.1,75.3,51.0,37.9,24.0,37,21,8,29.55,29.41,17,4,23,0.00
2014-6-28,95.7,85.3,74.1,42.0,37.0,32.0,27,18,12,29.60,29.50,12,3,18,0.00
2014-6-29,99.6,88.7,76.6,43.0,35.8,29.0,27,16,9,29.67,29.53,15,2,18,0.00
2014-6-30,97.3,86.2,78.6,48.0,38.8,29.0,32,20,9,29.60,29.43,4,1,10,0.00
2014-7-1,92.2,80.3,61.8,62.0,43.9,37.0,93,32,16,29.69,29.47,18,4,29,0.76
2014-7-2,87.8,77.1,67.7,58.0,54.7,50.0,69,47,29,29.82,29.66,22,8,31,0.00
2014-7-3,88.7,78.2,70.9,58.0,54.8,51.0,59,46,29,29.85,29.73,24,12,32,0.00
2014-7-4,91.0,83.0,74.5,54.0,51.0,47.0,47,34,23,29.88,29.74,17,8,25,0.00
2014-7-5,93.4,85.1,75.5,53.0,49.2,46.0,42,30,20,29.85,29.68,21,6,26,0.00
2014-7-6,91.7,81.5,70.4,60.0,53.5,48.0,68,39,26,29.77,29.63,24,8,26,0.01
2014-7-7,90.1,77.7,65.5,62.0,56.9,52.0,84,53,27,29.80,29.65,9,3,15,0.00
2014-7-8,91.9,81.7,72.8,58.0,54.5,45.0,57,41,25,29.76,29.67,17,3,17,0.00
2014-7-9,92.5,84.1,75.4,57.0,51.3,44.0,51,34,22,29.75,29.59,21,7,27,0.00
2014-7-10,94.6,82.8,74.6,66.0,54.3,49.0,68,39,23,29.71,29.56,19,8,30,0.06
2014-7-11,94.3,83.7,75.3,57.0,53.0,44.0,50,36,21,29.72,29.58,23,9,25,0.00
2014-7-12,90.7,78.9,72.9,64.0,57.1,51.0,67,48,29,29.82,29.71,27,11,32,0.00
2014-7-13,89.7,80.6,72.7,71.0,56.7,53.0,73,45,31,29.87,29.73,16,6,19,0.00
2014-7-14,91.6,81.6,73.6,63.0,55.3,51.0,59,41,29,29.83,29.70,16,7,24,0.16
2014-7-15,90.8,79.5,69.8,59.0,56.2,51.0,65,46,28,29.88,29.68,20,6,26,0.00
2014-7-16,89.7,77.8,67.3,62.0,58.6,54.0,80,54,30,29.77,29.56,29,7,30,0.07
2014-7-17,94.6,79.8,69.3,62.0,57.3,50.0,78,50,23,29.71,29.56,18,3,25,0.00
2014-7-18,96.2,84.0,73.3,57.0,51.2,43.0,54,35,18,29.73,29.58,25,5,34,0.00
2014-7-19,98.8,86.1,72.3,56.0,48.7,41.0,55,30,14,29.71,29.57,10,2,17,0.00
2014-7-20,98.5,86.2,75.5,57.0,51.7,45.0,52,32,16,29.77,29.56,24,3,29,0.00
2014-7-21,97.7,83.5,71.6,61.0,54.0,47.0,65,39,18,29.78,29.66,26,4,38,0.01
2014-7-22,98.5,83.1,75.3,61.0,56.7,50.0,58,42,20,29.86,29.68,22,4,37,0.00
2014-7-23,93.2,82.8,70.7,64.0,54.0,42.0,75,42,17,29.89,29.78,15,4,22,0.01
2014-7-24,94.1,85.7,77.1,55.0,49.5,45.0,41,29,19,29.84,29.66,17,5,23,0.00
2014-7-25,97.2,88.4,80.1,52.0,47.8,42.0,34,25,15,29.76,29.58,13,4,20,0.00
2014-7-26,98.7,90.0,77.0,54.0,45.1,36.0,31,21,15,29.68,29.53,19,6,23,0.00
2014-7-27,95.8,86.2,75.6,59.0,50.3,37.0,50,30,16,29.77,29.60,15,4,23,0.00
2014-7-28,91.3,80.6,72.3,62.0,57.8,53.0,68,47,32,29.89,29.77,21,6,23,0.00
2014-7-29,88.1,79.3,66.3,64.0,60.0,55.0,89,53,40,29.88,29.73,21,5,26,0.13
2014-7-30,96.6,83.9,70.8,69.0,57.4,50.0,88,44,21,29.79,29.62,15,3,20,0.07
2014-7-31,88.0,77.7,68.2,68.0,59.9,54.0,89,56,33,29.85,29.70,32,10,34,0.08
2014-8-1,77.1,69.1,64.3,64.0,62.0,58.0,92,79,57,29.89,29.79,18,6,33,0.56
2014-8-2,77.3,69.4,63.3,64.0,60.3,54.0,91,74,53,29.95,29.84,23,10,29,0.19
2014-8-3,82.3,75.0,69.1,61.0,56.8,53.0,74,54,42,29.95,29.82,19,8,30,0.00
2014-8-4,86.9,76.0,67.0,66.0,59.1,54.0,94,58,34,29.88,29.76,18,6,21,0.42
2014-8-5,87.7,77.8,67.5,66.0,60.4,55.0,84,58,36,29.90,29.77,13,2,16,0.00
2014-8-6,92.4,81.5,70.1,62.0,58.0,55.0,69,47,29,29.83,29.66,10,1,14,0.00
2014-8-7,89.4,77.9,69.6,64.0,60.7,55.0,81,57,33,29.75,29.64,21,4,27,0.04
2014-8-8,84.6,76.7,69.0,64.0,60.8,57.0,77,59,42,29.79,29.68,20,3,20,0.00
2014-8-9,87.8,75.6,65.5,67.0,60.5,53.0,93,62,32,29.83,29.73,19,3,24,0.42
2014-8-10,87.4,77.0,69.3,62.0,57.4,53.0,72,52,37,29.85,29.74,14,4,32,0.02
2014-8-11,82.7,76.2,69.7,63.0,58.5,55.0,68,55,42,29.92,29.82,19,7,35,0.04
2014-8-12,82.3,75.6,70.1,62.0,59.8,57.0,74,59,48,29.93,29.80,23,11,33,0.02
2014-8-13,88.9,78.9,70.4,62.0,59.2,56.0,72,52,35,29.88,29.75,21,6,24,0.00
2014-8-14,86.7,77.8,69.8,65.0,61.8,58.0,76,59,42,29.82,29.72,13,4,17,0.00
2014-8-15,89.0,78.9,67.2,63.0,58.2,54.0,81,51,31,29.83,29.69,10,3,18,0.00
2014-8-16,81.4,75.6,73.4,62.0,57.7,54.0,63,54,47,29.80,29.73,3,1,7,0.00
2014-8-17,85.1,81.5,77.5,58.0,55.2,53.0,49,41,36,29.74,29.67,17,4,20,0.00
2014-8-18,90.7,80.4,69.8,61.0,56.1,48.0,68,45,25,29.74,29.59,21,5,26,0.00
2014-8-19,88.3,75.3,67.6,63.0,59.3,56.0,76,59,33,29.68,29.56,14,2,22,0.10
2014-8-20,87.8,75.2,65.3,61.0,55.6,47.0,80,54,29,29.76,29.65,8,2,14,0.00
2014-8-21,90.4,79.5,68.3,58.0,52.4,47.0,56,40,27,29.78,29.66,12,3,19,0.00
2014-8-22,77.3,70.4,63.9,64.0,61.7,57.0,93,75,56,29.82,29.74,12,2,18,0.32
2014-8-23,86.1,75.9,65.3,62.0,57.4,53.0,80,55,34,29.84,29.69,10,2,23,0.00
2014-8-24,90.7,80.9,71.4,62.0,57.4,52.0,62,46,29,29.74,29.62,11,2,15,0.00
2014-8-25,82.2,75.2,70.5,62.0,56.9,54.0,68,54,40,29.80,29.68,13,4,18,0.01
2014-8-26,87.3,78.1,69.0,63.0,58.9,55.0,79,53,34,29.89,29.73,21,6,23,0.01
2014-8-27,85.7,76.2,67.3,64.0,60.7,56.0,84,61,42,29.89,29.76,14,3,19,0.01
2014-8-28,89.0,79.3,67.8,62.0,54.1,43.0,74,45,23,29.82,29.66,8,2,18,0.00
2014-8-29,92.0,81.8,69.7,53.0,46.4,43.0,48,30,18,29.72,29.61,23,3,23,0.00
2014-8-30,93.2,85.1,75.4,54.0,45.9,39.0,42,26,15,29.73,29.60,17,5,20,0.00
2014-8-31,95.5,86.5,75.4,51.0,45.2,41.0,36,24,16,29.68,29.54,13,2,18,0.00
2014-9-1,95.1,84.2,72.7,47.0,40.6,33.0,35,22,12,29.68,29.57,11,2,15,0.00
2014-9-2,99.0,86.7,76.3,46.0,35.6,28.0,27,17,9,29.67,29.52,7,2,14,0.00
2014-9-3,96.8,86.0,75.6,53.0,41.4,31.0,35,22,10,29.61,29.48,20,4,24,0.00
2014-9-4,89.3,81.1,69.7,61.0,57.1,52.0,74,45,30,29.68,29.51,28,11,33,0.02
2014-9-5,79.2,72.1,65.1,64.0,62.1,60.0,88,72,56,29.84,29.67,19,7,22,0.49
2014-9-6,77.9,71.8,66.9,64.0,59.9,57.0,81,67,51,29.91,29.80,21,9,31,0.14
2014-9-7,70.1,66.9,63.2,63.0,60.5,58.0,88,80,73,29.93,29.82,23,10,28,0.04
2014-9-8,85.1,74.5,66.6,64.0,61.9,58.0,85,67,43,29.88,29.71,23,8,25,0.00
2014-9-9,86.5,75.9,67.1,64.0,59.2,50.0,85,59,30,29.79,29.64,13,2,17,0.00
2014-9-10,88.0,77.6,68.4,57.0,53.3,47.0,62,45,28,29.75,29.63,10,2,12,0.00
2014-9-11,80.5,75.1,69.9,61.0,52.8,46.0,69,47,36,29.77,29.69,23,5,29,0.00
2014-9-12,72.4,67.3,57.0,62.0,57.0,48.0,77,70,59,29.94,29.75,35,18,42,0.00
2014-9-13,70.7,61.0,54.2,55.0,50.1,46.0,74,68,55,30.09,29.93,45,19,48,0.00
2014-9-14,76.9,67.4,60.6,59.0,55.8,53.0,78,67,52,30.00,29.84,31,13,35,0.00
2014-9-15,78.3,69.8,64.9,63.0,59.7,57.0,80,71,56,29.93,29.84,19,10,24,0.01
2014-9-16,75.9,69.6,63.7,65.0,62.4,61.0,94,79,62,29.93,29.79,22,9,28,1.05
2014-9-17,81.2,72.0,66.8,66.0,62.7,61.0,92,73,57,29.81,29.63,23,10,26,0.61
2014-9-18,70.2,67.2,63.3,65.0,62.2,59.0,93,84,72,29.73,29.64,20,9,33,0.78
2014-9-19,79.8,71.5,64.8,65.0,63.1,61.0,95,77,54,29.78,29.68,14,1,18,0.00
2014-9-20,85.6,76.6,69.0,66.0,62.9,60.0,77,63,49,29.78,29.67,24,4,24,0.00
2014-9-21,84.3,75.7,70.5,65.0,63.1,61.0,79,66,49,29.85,29.74,26,13,30,0.04
2014-9-22,74.2,69.3,65.4,66.0,63.6,61.0,89,82,71,29.93,29.84,24,14,36,0.25
2014-9-23,82.1,73.0,65.6,63.0,60.6,57.0,88,66,47,29.95,29.80,26,7,26,0.00
2014-9-24,84.0,73.9,66.4,64.0,58.2,55.0,79,59,42,29.89,29.78,22,4,32,0.46
2014-9-25,80.4,71.4,65.1,57.0,53.8,50.0,67,55,40,29.94,29.82,22,11,37,0.00
2014-9-26,78.6,69.5,63.3,55.0,52.2,48.0,70,55,36,29.91,29.78,29,10,37,0.00
2014-9-27,77.7,68.3,60.4,56.0,53.2,48.0,80,60,41,29.86,29.71,26,10,30,0.00
2014-9-28,82.7,72.7,64.2,59.0,56.2,54.0,74,58,38,29.83,29.73,28,12,31,0.00
2014-9-29,85.5,75.7,67.3,61.0,57.1,51.0,73,54,31,29.75,29.59,21,8,29,0.00
2014-9-30,82.3,72.9,64.5,56.0,49.6,34.0,70,46,26,29.69,29.55,12,3,19,0.00
2014-10-1,80.9,71.5,62.4,45.0,36.8,32.0,40,29,19,29.70,29.61,10,2,17,0.00
2014-10-2,78.4,69.9,61.3,43.0,34.5,17.0,40,29,13,29.91,29.68,10,3,12,0.00
2014-10-3,81.9,70.8,60.1,37.0,28.0,20.0,34,21,15,30.05,29.92,16,2,19,0.00
2014-10-4,83.2,72.7,60.4,44.0,36.9,33.0,40,28,17,29.96,29.75,22,5,25,0.00
2014-10-5,82.5,73.0,63.0,39.0,32.8,27.0,33,23,15,29.81,29.67,11,2,15,0.00
2014-10-6,81.4,71.0,59.4,40.0,33.6,28.0,39,26,18,29.84,29.73,6,1,10,0.00
2014-10-7,84.0,72.7,60.0,43.0,35.3,30.0,43,26,15,29.87,29.72,5,1,11,0.00
2014-10-8,85.2,76.0,65.6,52.0,42.2,30.0,50,30,21,29.78,29.62,5,1,14,0.00
2014-10-9,82.3,71.7,64.2,56.0,52.8,47.0,70,53,35,29.73,29.60,11,4,19,0.00
2014-10-10,76.9,67.6,55.3,54.0,49.7,44.0,85,54,36,29.89,29.72,14,3,18,0.00
2014-10-11,76.2,65.9,56.1,52.0,48.8,44.0,78,56,32,29.97,29.82,22,4,28,0.00
2014-10-12,79.2,69.9,61.2,48.0,42.7,36.0,56,39,22,29.82,29.55,18,4,30,0.00
2014-10-13,70.4,63.6,57.7,31.0,24.1,13.0,29,22,14,29.98,29.73,12,4,20,0.00
2014-10-14,76.1,66.1,52.3,35.0,27.3,23.0,40,24,15,30.09,29.94,16,5,19,0.00
2014-10-15,83.0,71.3,59.2,38.0,31.8,23.0,37,24,17,29.98,29.81,16,4,19,0.00
2014-10-16,83.9,75.1,66.0,46.0,40.8,34.0,36,29,24,29.85,29.71,13,1,14,0.00
2014-10-17,83.2,74.9,63.6,50.0,43.8,32.0,54,34,21,29.77,29.68,7,2,13,0.00
2014-10-18,76.6,69.3,62.1,53.0,47.4,30.0,73,47,18,29.78,29.69,32,16,37,0.09
2014-10-19,76.3,64.9,54.9,55.0,50.5,45.0,93,62,35,29.86,29.68,33,16,49,1.11
2014-10-20,71.2,63.2,57.8,55.0,51.5,48.0,79,66,49,29.89,29.79,23,7,30,0.00
2014-10-21,74.3,63.7,57.9,55.0,52.7,51.0,82,68,46,29.90,29.78,21,10,27,0.00
2014-10-22,75.1,65.7,60.3,57.0,54.3,52.0,83,68,46,29.93,29.82,23,6,28,0.00
2014-10-23,78.2,68.7,60.6,56.0,51.5,46.0,73,56,35,30.01,29.89,5,1,9,0.00
2014-10-24,82.1,71.6,61.6,53.0,48.1,43.0,67,45,26,30.02,29.90,6,1,6,0.00
2014-10-25,82.7,73.2,61.4,53.0,45.0,40.0,56,37,23,29.99,29.86,4,1,9,0.00
2014-10-26,83.0,74.3,65.4,50.0,45.2,42.0,48,36,25,29.85,29.65,12,2,15,0.00
2014-10-27,77.3,70.0,63.6,52.0,46.6,42.0,53,44,34,29.77,29.62,9,2,16,0.00
2014-10-28,75.4,67.5,57.9,46.0,41.3,37.0,59,39,30,29.93,29.77,13,4,16,0.00
2014-10-29,75.2,68.0,56.9,45.0,40.7,32.0,57,38,26,29.99,29.89,16,5,18,0.00
2014-10-30,79.1,69.5,59.3,46.0,37.6,29.0,52,32,20,30.01,29.91,31,4,37,0.00
2014-10-31,72.1,63.9,57.9,49.0,42.6,34.0,70,47,29,30.05,29.93,38,20,46,0.00
2014-11-1,74.2,65.9,58.1,50.0,44.8,37.0,58,47,37,29.96,29.80,36,18,41,0.00
2014-11-2,77.0,68.4,60.3,52.0,47.6,42.0,75,49,30,29.84,29.64,18,6,24,0.01
2014-11-3,64.3,58.4,53.9,54.0,51.1,48.0,90,77,61,29.87,29.73,11,2,17,0.09
2014-11-4,57.0,52.7,48.5,51.0,43.9,39.0,93,73,56,30.08,29.87,31,12,39,0.00
2014-11-5,57.0,52.3,47.9,45.0,40.6,36.0,81,65,52,30.24,30.07,19,6,27,0.00
2014-11-6,55.4,52.9,49.4,44.0,36.7,31.0,83,55,42,30.34,30.24,31,9,31,0.00
2014-11-7,63.9,54.0,44.9,46.0,41.2,36.0,78,63,48,30.25,30.00,13,3,18,0.00
2014-11-8,64.7,57.9,49.9,45.0,38.4,33.0,80,50,35,30.20,30.02,32,10,50,0.00
2014-11-9,68.1,58.2,45.9,44.0,39.2,35.0,77,51,32,30.13,29.78,7,2,11,0.00
2014-11-10,72.9,62.2,50.9,40.0,37.4,32.0,66,42,22,29.79,29.64,14,3,23,0.00
2014-11-11,70.5,62.5,55.1,46.0,41.6,36.0,60,47,37,29.85,29.74,14,3,20,0.00
2014-11-12,60.2,46.2,33.5,42.0,29.6,19.0,61,53,46,30.12,29.81,46,24,54,0.00
2014-11-13,43.5,36.5,28.9,25.0,18.7,16.0,59,49,39,30.36,30.13,44,19,48,0.00
2014-11-14,66.0,51.7,36.6,43.0,33.7,23.0,65,51,41,30.18,29.89,13,2,19,0.00
2014-11-15,65.1,57.8,50.4,45.0,39.1,33.0,70,51,37,29.94,29.79,10,3,24,0.00
2014-11-16,58.6,49.1,41.0,42.0,31.8,12.0,82,53,28,30.15,29.77,22,7,37,0.02
2014-11-17,46.7,38.3,30.6,21.0,16.5,12.0,65,43,29,30.35,30.15,26,9,28,0.00
2014-11-18,54.3,44.0,32.4,22.0,15.9,12.0,49,33,21,30.38,30.26,12,2,15,0.00
2014-11-19,61.8,49.8,33.5,26.0,18.7,12.0,57,31,14,30.28,30.07,6,1,7,0.00
2014-11-20,66.2,55.4,44.5,28.0,21.3,10.0,46,28,15,30.07,29.89,9,2,13,0.00
2014-11-21,66.8,58.3,49.1,31.0,23.9,15.0,35,27,21,29.92,29.78,6,1,11,0.00
2014-11-22,63.2,55.7,49.1,39.0,30.7,20.0,62,40,26,29.92,29.76,10,3,16,0.00
2014-11-23,60.1,51.5,43.4,29.0,19.0,0.0,45,29,12,30.00,29.74,25,7,31,0.00
2014-11-24,53.8,45.3,37.7,9.0,1.9,-7.0,24,17,8,30.26,30.01,16,5,28,0.00
2014-11-25,51.6,42.9,32.1,15.0,10.7,6.0,42,28,18,30.46,30.27,11,3,18,0.00
2014-11-26,63.5,50.3,35.7,23.0,14.7,6.0,33,24,18,30.38,30.23,6,1,9,0.00
2014-11-27,63.8,55.9,43.0,26.0,22.2,18.0,42,27,21,30.33,30.16,11,2,14,0.00
2014-11-28,67.3,58.1,48.5,29.0,21.6,18.0,37,25,16,30.15,29.93,11,1,11,0.00
2014-11-29,70.6,59.4,49.8,22.0,19.4,17.0,30,22,14,29.95,29.80,6,1,13,0.00
2014-11-30,67.1,59.6,48.0,25.0,20.0,16.0,31,22,18,30.01,29.88,8,2,14,0.00
2014-12-1,60.6,55.9,50.4,25.0,19.8,16.0,29,24,20,30.16,30.01,29,10,30,0.00
2014-12-2,60.4,52.5,40.8,29.0,23.4,19.0,44,32,26,30.12,29.99,21,3,26,0.00
2014-12-3,68.1,60.3,51.0,44.0,34.2,25.0,51,38,30,30.08,29.91,6,1,7,0.00
2014-12-4,63.0,58.8,50.8,47.0,42.7,40.0,82,56,45,29.91,29.79,13,2,18,0.00
2014-12-5,63.3,55.1,46.6,45.0,40.8,35.0,83,61,42,30.18,29.91,11,3,18,0.00
2014-12-6,63.4,57.9,52.8,38.0,36.6,34.0,54,46,37,30.22,30.08,33,16,44,0.00
2014-12-7,65.6,58.4,52.9,39.0,36.6,34.0,54,45,37,30.18,30.05,33,10,44,0.00
2014-12-8,64.8,57.7,46.0,39.0,35.8,32.0,61,45,34,30.21,30.08,23,8,25,0.00
2014-12-9,62.6,58.0,54.7,47.0,42.9,37.0,70,58,46,30.11,29.95,31,17,33,0.07
2014-12-10,67.6,57.7,49.9,50.0,46.9,34.0,87,69,37,30.02,29.90,26,4,32,0.00
2014-12-11,69.2,59.4,49.8,48.0,44.4,38.0,80,59,36,30.04,29.92,7,1,9,0.00
2014-12-12,68.3,60.6,53.4,43.0,40.0,38.0,63,47,37,30.07,29.94,6,1,11,0.00
2014-12-13,67.6,59.4,43.5,42.0,38.3,33.0,68,47,34,29.95,29.68,13,3,24,0.00
2014-12-14,54.5,45.4,37.3,33.0,26.3,19.0,74,50,27,30.04,29.83,14,6,20,0.00
2014-12-15,55.3,47.1,35.4,28.0,22.2,16.0,65,40,21,30.15,30.03,9,2,13,0.00
2014-12-16,56.7,52.1,45.2,32.0,22.7,14.0,50,32,22,30.12,29.89,40,18,42,0.00
2014-12-17,57.7,49.3,41.7,36.0,33.5,31.0,72,56,38,30.06,29.89,26,6,37,0.00
2014-12-18,51.9,46.1,41.3,40.0,36.2,32.0,86,70,49,30.10,29.98,12,2,26,0.04
2014-12-19,49.9,42.6,36.3,40.0,33.2,25.0,93,72,46,30.21,30.09,7,2,10,0.01
2014-12-20,52.7,44.6,35.8,32.0,28.3,25.0,74,54,38,30.17,30.04,6,2,11,0.00
2014-12-21,59.6,48.1,36.7,32.0,29.6,26.0,74,51,28,30.06,29.88,10,3,17,0.00
2014-12-22,63.3,53.5,44.0,37.0,33.6,30.0,63,48,34,29.89,29.60,15,5,24,0.00
2014-12-23,50.5,44.3,37.7,37.0,20.1,9.0,68,40,23,30.15,29.69,22,6,30,0.00
2014-12-24,47.9,38.7,28.5,22.0,12.5,6.0,64,36,20,30.25,29.95,8,2,14,0.00
2014-12-25,64.6,50.9,39.8,23.0,13.8,6.0,37,24,13,29.95,29.65,17,4,21,0.00
2014-12-26,48.5,38.2,32.7,35.0,30.8,23.0,93,77,37,30.08,29.67,12,2,17,0.22
2014-12-27,41.5,36.1,31.8,33.0,30.6,27.0,89,80,64,30.34,30.07,17,3,19,0.02
2014-12-28,45.0,37.3,31.1,28.0,25.7,22.0,84,64,40,30.33,30.15,5,1,10,0.00
2014-12-29,55.2,44.7,36.2,30.0,24.9,14.0,78,50,20,30.16,30.04,12,2,15,0.00
2014-12-30,49.8,39.2,26.5,25.0,21.6,18.0,73,52,29,30.14,29.98,60,30,64,0.00
2014-12-31,29.2,25.4,21.4,26.0,19.7,15.0,89,79,72,30.31,30.10,55,28,63,0.00
2015-1-1,45.7,35.9,28.3,32.0,28.3,25.0,90,75,55,30.16,30.01,36,10,50,0.00
2015-1-2,43.1,36.5,29.5,34.0,29.5,25.0,92,77,61,30.00,29.82,30,9,36,0.01